COSMOS 2251 DEB, 40794

Orbit data source: Space-Track

COSMOS 2251 DEB, 40794 is space debris in LEO originally from a launch on Wed, 16 Jun 1993 UTC launched from the Plesetsk Missile And Space Complex (PKMTR). The debris from Iridium 33, an American commercial communications satellite, has been tracked extensively since its accidental collision with the defunct Russian satellite Cosmos 2251 in 2009. This event, occurring at high speed in low Earth orbit (LEO), generated thousands of pieces of space debris, significantly increasing the risk of further collisions. The Iridium 33 debris cloud has impacted space traffic management and orbital debris mitigation strategies, making it a subject of ongoing study in space situational awareness.

Loading next visibility...
Identifier
40794, 1993-036BVX
Orbit
LEO
Country
Flag of CISCIS
Related business
Manufacturer
Unknown
Mission
Spacecraft
Bus & Motor
Unknown
Mass
Unknown
Launch date (UTC)
1993-06-16 (33 years ago)
Launch vehicle
Unknown
Launch site
Plesetsk Missile And Space Complex (PKMTR)
Object type
Payload
Rocket body
Debris
Shape & HBR
Unknown shape, 0.1 m
Radar Cross Section
Small (<0.1 m²)

Expand to show TLE details & history
Last TLE update: 2 weeks ago

TLE from 2 weeks ago
0 COSMOS 2251 DEB
1 40794U 93036BVX 26241.94407946  .00059610  00000-0  30720-2 0  9998
2 40794  73.9696 309.6047 0011525 352.0804 182.6636 15.16024810658370
Epoch: 2026-08-29T22:39Z
TLE epoch observation values (Epoch: 2026-08-29T22:39:28.465Z)
Latitude
4.9741°
Longitude
170.1643°
Altitude
528.004 km
Speed
7.595 km/s
True Right ascension
08h 32m 43s
True Declination
4° 56' 37"
Sunlit
Object was in daylight at epoch
Visualization orbit readout
Latitude
Unknown
Longitude
Unknown
Altitude
Unknown
Speed
Unknown
Apparent Right ascension
Unknown
Apparent Declination
Unknown
Sunlit
N/A
Visualization observer readout
Local Sidereal Time
12:15:15
Azimuth
Unknown
Elevation
Unknown
Doppler factor
Unknown
Orbital elements
Apogee altitude
523.356 km
Perigee altitude
507.466 km
Semi-major axis
6,893.548 km
Eccentricity
0.00115
Inclination
73.9696°
RAAN
309.6047°
Arg. of periapsis
352.0804°
True anomaly
182.65747°
Mean anomaly
182.6636°
Eccentric anomaly
182.66053°
Mean motion
3.79209 °/min
Orbital period
94.93 mins
BSTAR
0.003072
Loading maneuver chart data...
Computing Atmospheric mass density...

Documentation

Showing up to 5 results
|